#timestamp,LO_Frequency,Hit,StdDev 
1683342015.6,286046979.4,N
1683342035.4,286046980.7,N
1683342055.2,286046977.9,N
1683342075.1,286046978.2,N
1683342076.0,286046978.2,N
1683342095.8,286046976.5,N
1683342115.6,286046980.9,N
1683342135.5,286046979.3,N
1683342155.3,286046986.3,N
1683342175.2,286046979.5,N
1683342195.9,286046979.3,N
1683342215.7,286046979.2,Y
1683342235.6,286046995.3,P
1683342255.4,286046993.5,N
1683342275.2,286046991.7,N
1683342295.1,286046991.2,N
1683342296.0,286046991.2,N
1683342315.8,286046991.6,N
1683342335.7,286046991.0,N
1683342355.5,286046992.3,N
1683342375.3,286046996.0,N
1683342395.2,286046995.1,N
1683342415.0,286046994.6,N
1683342415.9,286046994.6,N
1683342435.7,286046995.9,N
1683342455.6,286046997.9,N
1683342475.4,286046996.9,N
1683342495.3,286046999.3,N
1683342515.1,286046998.8,N
1683342516.0,286046998.8,N
1683342535.8,286046998.3,N
1683342555.7,286046994.6,N
1683342575.5,286046999.6,N
1683342595.3,286047002.3,N
1683342615.2,286047005.6,N
1683342635.0,286047005.0,N
1683342635.9,286047005.0,N
1683342655.8,286047007.2,N
1683342675.6,286047004.9,N
1683342695.4,286047009.0,N
1683342715.3,286047010.8,N
1683342735.1,286047012.1,N
1683342755.8,286047012.2,N
1683342775.7,286047006.1,N
1683342795.5,286047007.5,N
1683342815.4,286047005.2,N
1683342835.2,286047006.4,N
1683342855.0,286047010.5,N
1683342855.9,286047010.5,N
1683342875.8,286047008.7,N
1683342895.6,286047008.4,N
1683342915.4,286047006.2,N
1683342935.3,286047006.9,N
1683342955.1,286047006.0,N
1683342975.9,286047000.2,N
1683342995.7,286047005.8,N
1683343015.5,286047010.1,N
1683343035.4,286047008.4,N
1683343055.2,286047005.5,N
1683343075.0,286047001.4,N
1683343076.0,286047001.4,N
1683343095.8,286047003.7,N
1683343115.6,286047001.6,N
1683343135.5,286046999.3,N
1683343155.3,286046998.1,N
1683343175.1,286047007.1,N
1683343195.9,286047002.9,N
1683343215.7,286047002.6,N
1683343235.5,286047003.0,N
1683343255.4,286047004.2,N
1683343275.2,286047002.6,N
1683343295.1,286047000.7,N
1683343296.0,286047000.7,N
1683343315.8,286046998.5,N
1683343335.6,286047002.6,N
1683343355.5,286047001.3,N
1683343375.3,286046996.5,N
1683343395.1,286047001.6,N
1683343415.9,286047004.0,N
1683343435.7,286046998.7,N
1683343455.6,286046997.4,N
1683343475.4,286047004.5,N
1683343495.2,286047007.0,N
1683343515.1,286047007.1,N
1683343516.0,286047007.1,N
1683343535.8,286047010.0,N
1683343555.6,286047008.2,N
1683343575.5,286047006.7,N
1683343595.3,286047006.9,N
1683343615.2,286047008.4,N
1683343635.9,286047007.3,N
1683343655.7,286047002.9,N
1683343675.6,286047002.8,N
1683343695.4,286047002.6,N
1683343715.2,286047003.1,N
1683343735.1,286047007.2,N
1683343736.0,286047007.2,N
1683343755.8,286047006.7,N
1683343775.7,286047004.8,N
1683343795.5,286047014.4,Y
1683343815.3,286047010.9,P
1683343835.2,286047009.8,N
1683343855.0,286047010.2,P
1683343855.9,286047010.2,Y
1683343875.8,286046998.7,P
1683343895.6,286046998.2,N
1683343915.4,286047000.2,N
1683343935.3,286047005.0,N
1683343955.1,286047010.5,N
1683343975.8,286047008.2,N
1683343995.7,286047012.3,N
1683344015.5,286047012.1,N
1683344035.3,286047008.9,N
1683344055.2,286047003.4,N
1683344075.0,286047000.4,N
1683344075.9,286047000.4,N
1683344095.8,286047000.2,N
1683344115.6,286047001.2,N
1683344135.4,286047000.7,N
1683344155.3,286047000.1,N
1683344175.1,286047003.9,N
1683344195.9,286047001.0,N
1683344215.7,286046997.7,N
1683344235.5,286046996.7,N
1683344255.4,286046998.9,N
1683344275.2,286047000.5,N
1683344295.0,286047003.8,N
1683344295.9,286047003.8,N
1683344315.8,286047001.9,N
1683344335.6,286047002.0,N
1683344355.5,286047007.2,N
1683344375.3,286047012.1,N
1683344395.1,286047013.2,N
1683344415.9,286047012.7,N
1683344435.7,286047021.8,Y
1683344455.6,286047020.7,P
1683344475.4,286047021.2,N
1683344495.2,286047020.5,N
1683344515.1,286047023.8,Y
1683344516.0,286047023.8,P
1683344535.8,286047009.7,N
1683344555.6,286047006.9,N
1683344575.5,286047010.5,N
1683344595.3,286047008.4,N
1683344615.2,286047004.5,N
1683344635.9,286047012.2,N
1683344655.7,286047010.3,N
1683344675.6,286047004.5,N
1683344695.4,286047004.8,N
1683344715.2,286047005.6,N
1683344735.1,286047006.2,N
1683344736.0,286047006.2,N
1683344755.8,286047005.4,N
1683344775.7,286047004.8,N
1683344795.5,286047008.8,N
1683344815.3,286047003.5,N
1683344835.2,286047005.1,N
1683344855.0,286047006.5,N
1683344855.9,286047006.5,N
1683344875.7,286047005.9,N
1683344895.6,286046999.3,N
1683344915.4,286047000.1,N
1683344935.3,286047010.3,N
1683344955.1,286047011.0,N
1683344956.0,286047011.0,N
1683344975.8,286047008.0,N
1683344995.7,286047006.4,N
1683345015.5,286047003.2,N
1683345035.3,286047006.6,N
1683345055.2,286047006.0,N
1683345075.0,286047002.2,N
1683345075.9,286047002.2,N
1683345095.8,286046998.1,N
1683345115.6,286046997.3,N
1683345135.4,286046996.2,N
1683345155.3,286046996.4,N
1683345175.1,286046996.6,N
1683345195.9,286046998.7,N
1683345215.7,286046999.3,N
1683345235.5,286047000.0,N
1683345255.4,286047006.0,N
1683345275.2,286047002.8,N
1683345295.0,286046993.4,N
1683345295.9,286046993.4,N
1683345315.8,286046992.0,N
1683345335.6,286046991.7,N
1683345355.5,286046994.6,N
1683345375.3,286046993.5,N
1683345395.1,286046995.1,N
1683345415.9,286046999.7,N
1683345435.7,286047003.8,N
1683345455.5,286047005.8,N
1683345475.4,286047005.9,N
1683345495.2,286047004.7,N
1683345515.1,286047007.3,N
1683345516.0,286047007.3,N
1683345535.8,286047006.6,N
1683345555.6,286047010.4,N
1683345575.5,286047010.2,N
1683345595.3,286047008.2,N
